HFY67N EGKK-LEIB

Flight info

Callsign HFY67N
Flight time N/A
Altitude 35000
Route SFD Y47 DRAKE L151 SITET UN859 SOPIL DCT BALAN DCT EVPOK DCT NARAK DCT GAI DCT LOMRA DCT ROCAN/N0480F310 DCT PUMAL DCT XEPLA DCT BCN DCT CORDA
Aircraft A343/H-SDE2E3FGHIJ4J5M1RWXY/LB1D1

Departure

Time 2026-05-07 13:57
Airport London Gatwick Airport (EGKK)

Arrival

Time N/A
Airport Ibiza Airport (LEIB)
Time Latitude Longitude Altitude Speed Heading
2026-05-07 13:57 50.95666 -0.23125 5997 ft 266 kts 131°
2026-05-07 13:57 50.94444 -0.20899 5999 ft 271 kts 131°
2026-05-07 13:58 50.93194 -0.18634 5984 ft 274 kts 131°
2026-05-07 13:58 50.91942 -0.16363 6067 ft 273 kts 131°
2026-05-07 13:58 50.90693 -0.14108 6076 ft 272 kts 131°
2026-05-07 13:58 50.89444 -0.11856 6075 ft 272 kts 131°
2026-05-07 13:59 50.88196 -0.09607 6075 ft 272 kts 131°
2026-05-07 13:59 50.86949 -0.07359 6073 ft 272 kts 131°
2026-05-07 13:59 50.85696 -0.05100 6075 ft 273 kts 131°
2026-05-07 13:59 50.84444 -0.02846 6074 ft 273 kts 131°
2026-05-07 14:00 50.83185 -0.00605 6080 ft 273 kts 133°
2026-05-07 14:00 50.81701 0.01236 6356 ft 272 kts 151°
2026-05-07 14:00 50.80534 0.01967 6742 ft 274 kts 167°
2026-05-07 14:00 50.78046 0.01473 8102 ft 272 kts 202°
2026-05-07 14:01 50.76390 0.00055 9217 ft 271 kts 213°
2026-05-07 14:01 50.74840 -0.01654 10173 ft 273 kts 212°
2026-05-07 14:01 50.73019 -0.02656 10676 ft 289 kts 187°
2026-05-07 14:01 50.70965 -0.02687 11009 ft 310 kts 175°
2026-05-07 14:02 50.68755 -0.02288 11331 ft 329 kts 173°
2026-05-07 14:02 50.66420 -0.01813 11725 ft 345 kts 174°
2026-05-07 14:02 50.63995 -0.01431 12336 ft 354 kts 175°
2026-05-07 14:02 50.61504 -0.01176 12957 ft 363 kts 178°
2026-05-07 14:03 50.58962 -0.01029 13712 ft 368 kts 179°
2026-05-07 14:03 50.56391 -0.00949 14415 ft 372 kts 180°
2026-05-07 14:03 50.53775 -0.00901 15057 ft 376 kts 180°
2026-05-07 14:03 50.51147 -0.00863 15763 ft 380 kts 180°
2026-05-07 14:04 50.48490 -0.00824 16487 ft 384 kts 180°
2026-05-07 14:04 50.45802 -0.00779 17188 ft 387 kts 180°
2026-05-07 14:04 50.43089 -0.00724 17887 ft 392 kts 180°
2026-05-07 14:04 50.40381 -0.00665 18502 ft 396 kts 181°
2026-05-07 14:05 50.37608 -0.00605 19092 ft 400 kts 181°
2026-05-07 14:05 50.34808 -0.00544 19702 ft 404 kts 181°
2026-05-07 14:05 50.31983 -0.00483 20304 ft 407 kts 181°
2026-05-07 14:05 50.29133 -0.00420 20900 ft 411 kts 181°
2026-05-07 14:06 50.26261 -0.00358 21488 ft 414 kts 181°
2026-05-07 14:06 50.23399 -0.00295 22064 ft 417 kts 181°
2026-05-07 14:06 50.20481 -0.00231 22628 ft 420 kts 181°
2026-05-07 14:06 50.17537 -0.00161 23185 ft 423 kts 181°
2026-05-07 14:07 50.14581 -0.00096 23719 ft 426 kts 181°
2026-05-07 14:07 50.11600 0.00045 24155 ft 430 kts 177°
2026-05-07 14:07 50.08616 0.00689 24596 ft 434 kts 171°
2026-05-07 14:07 50.05684 0.01651 25021 ft 438 kts 169°
2026-05-07 14:08 50.02709 0.02759 25439 ft 441 kts 168°
2026-05-07 14:08 49.99729 0.03938 25855 ft 444 kts 167°
2026-05-07 14:08 49.96721 0.05154 26253 ft 447 kts 167°
2026-05-07 14:08 49.93697 0.06376 26684 ft 448 kts 167°
2026-05-07 14:09 49.90672 0.07589 27086 ft 451 kts 167°
2026-05-07 14:09 49.87624 0.08798 27477 ft 453 kts 168°
2026-05-07 14:09 49.84557 0.10006 27847 ft 456 kts 168°
2026-05-07 14:09 49.81549 0.11184 28194 ft 458 kts 168°
2026-05-07 14:10 49.79935 0.11814 28371 ft 460 kts 168°
2026-05-07 14:12 49.79586 0.11950 28424 ft 460 kts 168°
2026-05-07 14:12 49.75463 0.13557 28904 ft 463 kts 168°
2026-05-07 14:12 49.73084 0.14482 29168 ft 465 kts 168°